Total_Precipitation_Accumulation
1.64 1.48 1.28 1.18 1.10 0.98 0.95 0.96 0.92 0.88 0.81 0.75 0.71 0.60 0.54 0.47 0.44 0.41 0.39 0.40 0.53 0.79 1.03 1.21 1.26 1.20 1.21 1.17 1.01 0.94 0.88 0.87 0.86 0.83 0.79 0.75 0.76 0.76 0.77 0.78 0.77 0.78 0.79
1.84 1.74 1.59 1.44 1.31 1.19 1.07 1.03 0.93 0.92 0.90 0.83 0.76 0.67 0.63 0.56 0.50 0.46 0.39 0.36 0.41 0.55 0.86 1.18 1.45 1.55 1.56 1.55 1.36 1.26 1.15 1.03 1.00 0.93 0.89 0.86 0.82 0.82 0.84 0.85 0.84 0.87 0.90
1.99 1.97 1.83 1.67 1.45 1.40 1.38 1.30 1.16 1.05 0.98 0.92 0.85 0.77 0.73 0.66 0.59 0.55 0.51 0.44 0.40 0.42 0.61 0.93 1.27 1.47 1.58 1.71 1.64 1.51 1.37 1.21 1.11 1.03 0.97 0.96 0.93 0.89 0.89 0.93 0.96 0.98 1.00
2.08 2.13 1.99 1.86 1.76 1.60 1.52 1.47 1.37 1.25 1.15 1.08 0.99 0.92 0.88 0.81 0.68 0.59 0.54 0.53 0.53 0.48 0.50 0.72 0.96 1.17 1.33 1.51 1.68 1.72 1.63 1.43 1.24 1.11 1.04 1.01 1.01 1.03 1.03 1.05 1.07 1.09 1.08
2.37 2.24 2.08 1.94 1.98 1.91 1.68 1.58 1.50 1.34 1.24 1.14 1.07 1.03 0.98 0.91 0.83 0.75 0.65 0.54 0.50 0.51 0.53 0.63 0.76 0.85 1.00 1.16 1.45 1.69 1.72 1.64 1.44 1.26 1.15 1.08 1.08 1.12 1.19 1.24 1.21 1.18 1.19
2.64 2.58 2.34 2.24 2.19 2.16 1.97 1.75 1.59 1.45 1.30 1.28 1.23 1.14 1.10 1.08 0.97 0.87 0.81 0.72 0.61 0.53 0.53 0.58 0.67 0.70 0.78 0.90 1.09 1.37 1.54 1.62 1.58 1.49 1.38 1.32 1.29 1.30 1.37 1.42 1.40 1.40 1.42
2.69 2.75 2.60 2.51 2.42 2.22 2.10 1.97 1.80 1.63 1.47 1.46 1.47 1.30 1.17 1.13 1.09 0.97 0.90 0.83 0.76 0.69 0.65 0.64 0.68 0.70 0.71 0.80 0.86 1.02 1.18 1.32 1.47 1.54 1.50 1.46 1.47 1.49 1.51 1.57 1.59 1.59 1.65
2.87 2.83 2.69 2.65 2.65 2.46 2.27 2.12 2.04 1.85 1.64 1.61 1.64 1.61 1.43 1.28 1.11 0.97 0.93 0.86 0.79 0.78 0.78 0.79 0.79 0.81 0.78 0.77 0.76 0.83 0.91 1.10 1.39 1.66 1.73 1.68 1.71 1.72 1.74 1.79 1.87 1.92 1.96
3.03 2.87 2.80 2.77 2.75 2.70 2.57 2.43 2.35 2.17 1.96 1.83 1.72 1.84 1.67 1.34 1.09 1.00 0.95 0.89 0.83 0.81 0.83 0.87 0.90 0.93 0.88 0.82 0.79 0.81 0.88 1.01 1.32 1.71 1.93 2.00 2.01 2.02 2.11 2.18 2.27 2.34 2.32
3.11 3.01 2.93 2.89 2.84 2.76 2.67 2.64 2.60 2.50 2.34 2.17 1.99 1.78 1.62 1.39 1.25 1.10 0.98 0.93 0.92 0.89 0.89 0.92 0.96 1.03 1.02 0.93 0.92 0.94 0.99 1.07 1.29 1.69 2.07 2.31 2.46 2.58 2.66 2.73 2.79 2.81 2.72
3.12 3.00 2.88 2.84 2.82 2.80 2.73 2.67 2.63 2.63 2.50 2.30 2.12 1.95 1.79 1.52 1.30 1.22 1.05 0.93 0.91 0.86 0.85 0.87 0.88 0.92 1.01 0.98 0.99 1.11 1.20 1.22 1.39 1.72 2.19 2.61 2.86 3.14 3.34 3.40 3.39 3.33 3.22
3.01 2.93 2.84 2.71 2.65 2.71 2.75 2.75 2.65 2.64 2.61 2.42 2.20 2.00 1.88 1.72 1.50 1.38 1.25 1.08 1.03 0.93 0.86 0.85 0.89 0.95 1.07 1.05 1.09 1.28 1.32 1.36 1.52 1.81 2.25 2.63 2.90 3.17 3.38 3.63 3.70 3.62 3.54
2.82 2.62 2.63 2.63 2.54 2.49 2.62 2.77 2.75 2.59 2.55 2.49 2.36 2.16 1.99 1.76 1.59 1.59 1.59 1.45 1.29 1.11 1.03 0.99 0.96 1.01 1.16 1.25 1.23 1.37 1.32 1.38 1.48 1.65 2.01 2.36 2.51 2.65 2.86 3.24 3.57 3.66 3.58
2.82 2.61 2.51 2.57 2.62 2.55 2.53 2.64 2.65 2.53 2.46 2.41 2.34 2.27 2.17 1.96 1.80 1.74 1.77 1.89 1.85 1.57 1.37 1.22 1.16 1.20 1.28 1.38 1.44 1.50 1.32 1.46 1.49 1.54 1.71 1.93 1.99 2.01 2.09 2.31 2.68 2.96 3.17
2.66 2.61 2.53 2.49 2.50 2.56 2.58 2.62 2.59 2.43 2.35 2.32 2.21 2.16 2.10 1.96 1.90 1.86 1.89 2.03 2.26 2.14 1.74 1.41 1.35 1.36 1.39 1.45 1.51 1.33 1.16 1.34 1.39 1.39 1.44 1.53 1.56 1.52 1.53 1.67 1.84 2.00 2.20
2.28 2.38 2.43 2.36 2.33 2.33 2.37 2.47 2.49 2.38 2.27 2.20 2.13 2.09 2.02 1.90 1.87 1.88 1.89 1.93 2.07 2.22 1.99 1.47 1.26 1.23 1.29 1.33 1.44 1.21 1.06 1.24 1.19 1.18 1.24 1.31 1.35 1.31 1.32 1.39 1.48 1.54 1.57
2.04 2.09 2.15 2.15 2.14 2.15 2.13 2.18 2.21 2.20 2.17 2.04 1.99 1.98 1.92 1.81 1.80 1.78 1.79 1.82 1.84 1.90 1.89 1.45 1.16 1.09 1.16 1.17 1.21 1.11 0.97 0.94 0.92 1.05 1.05 1.10 1.15 1.17 1.21 1.25 1.31 1.36 1.40
1.77 1.86 1.89 1.92 1.92 1.93 1.90 1.90 1.89 1.88 1.91 1.87 1.79 1.78 1.76 1.74 1.71 1.66 1.68 1.67 1.62 1.59 1.60 1.45 1.17 1.05 1.00 0.96 0.95 0.95 0.87 0.82 0.77 0.90 0.91 0.92 0.98 1.03 1.08 1.10 1.17 1.21 1.24
1.53 1.62 1.71 1.73 1.74 1.73 1.69 1.64 1.63 1.60 1.55 1.56 1.56 1.57 1.54 1.62 1.69 1.66 1.61 1.54 1.45 1.41 1.41 1.38 1.17 0.99 0.92 0.89 0.92 0.91 0.81 0.76 0.71 0.76 0.80 0.81 0.84 0.91 1.00 1.05 1.05 1.08 1.07
1.47 1.48 1.53 1.57 1.60 1.63 1.64 1.57 1.54 1.56 1.52 1.45 1.44 1.51 1.52 1.53 1.55 1.54 1.53 1.47 1.43 1.46 1.42 1.43 1.32 1.14 1.04 0.97 1.00 0.99 0.94 0.82 0.75 0.71 0.79 0.83 0.87 0.91 0.92 0.94 0.90 0.86 0.87
1.53 1.47 1.49 1.52 1.56 1.62 1.66 1.68 1.68 1.70 1.73 1.72 1.64 1.58 1.56 1.60 1.59 1.57 1.52 1.46 1.44 1.52 1.55 1.56 1.46 1.28 1.12 1.07 1.06 0.99 1.00 0.97 0.89 0.80 0.83 0.79 0.79 0.78 0.79 0.84 0.89 0.89 0.87
1.67 1.57 1.58 1.59 1.61 1.66 1.91 1.92 1.82 1.77 1.81 1.77 1.69 1.56 1.49 1.52 1.47 1.52 1.54 1.51 1.54 1.62 1.70 1.68 1.50 1.26 0.99 0.92 0.98 1.08 1.17 1.30 1.24 0.88 0.83 0.82 0.77 0.81 0.76 0.75 0.86 0.90 0.95
1.74 1.72 1.72 1.77 1.79 1.82 1.94 1.83 1.82 1.70 1.67 1.59 1.51 1.46 1.39 1.35 1.39 1.29 1.41 1.54 1.59 1.66 1.63 1.50 1.36 1.08 0.92 0.86 1.06 1.32 1.33 1.30 1.10 0.85 0.92 0.98 0.85 0.83 0.74 0.78 0.93 0.90 0.92
1.91 1.89 1.88 1.90 1.88 1.86 1.86 1.71 1.67 1.52 1.48 1.43 1.34 1.30 1.28 1.25 1.25 1.28 1.35 1.45 1.34 1.28 1.24 1.14 1.09 1.01 0.96 0.96 1.15 1.40 1.47 1.44 1.21 1.04 1.07 1.19 0.97 0.89 0.77 0.76 0.89 0.90 0.92
2.03 1.99 1.90 1.79 1.70 1.64 1.64 1.54 1.50 1.37 1.35 1.30 1.22 1.18 1.20 1.15 1.29 1.50 1.50 1.44 1.25 1.14 1.19 1.23 1.22 1.18 1.23 1.27 1.29 1.49 1.68 1.82 1.63 1.24 1.08 1.16 1.00 0.95 0.93 0.84 0.83 0.91 0.90
1.84 1.80 1.73 1.63 1.49 1.36 1.41 1.39 1.39 1.27 1.26 1.18 1.13 1.09 1.19 1.17 1.37 1.54 1.42 1.35 1.25 1.12 1.10 1.11 1.11 1.10 1.06 1.10 1.30 1.38 1.70 2.12 1.89 1.49 1.05 1.17 1.13 1.19 1.42 1.02 0.83 0.86 0.90